Wind_Speed
8 8 13 15 8 8 9 9 3 2 7 8 7 15 8 14 14 5 13 9 16 22 17 15 16 13 12 11 11 10 10 11 12 11 9 7 8 7 8 9 7 8 9 10 10 10 10 10 10
8 10 14 9 11 5 8 9 7 13 8 6 5 5 11 15 13 10 14 15 19 19 17 16 16 14 12 11 11 12 13 11 10 8 7 7 8 8 9 10 10 10 10 11 11 11 11 11 11
8 11 10 13 12 10 11 5 8 12 9 2 4 2 10 11 9 8 19 19 19 18 19 18 17 15 13 12 12 13 12 10 7 6 7 9 10 10 10 10 9 10 10 10 11 12 12 12 11
9 10 8 10 8 12 7 4 9 12 7 2 5 12 9 6 6 10 21 19 19 19 19 19 17 15 14 14 14 12 9 7 7 9 10 10 10 9 9 9 10 10 9 10 10 11 12 11 11
13 8 12 14 3 3 3 3 2 7 4 6 5 13 10 9 13 20 20 18 18 19 18 17 16 14 13 15 13 9 7 7 8 9 9 9 8 9 9 9 9 9 9 10 10 11 11 11 10
8 10 13 12 9 5 1 1 1 7 5 11 8 10 10 13 17 17 18 18 17 18 17 15 14 13 14 15 11 8 8 9 10 8 7 7 7 8 9 8 8 9 9 9 10 10 9 9 9
14 11 16 9 9 10 9 2 3 5 8 5 2 11 9 14 17 18 17 17 17 17 20 16 13 13 15 13 10 9 9 9 8 6 5 4 7 7 9 6 8 8 9 9 8 9 10 11 10
11 11 18 6 6 13 8 7 7 7 16 8 5 9 14 14 18 18 17 17 17 17 17 18 15 14 13 10 10 9 9 8 6 5 6 5 10 9 9 13 8 8 8 9 10 10 10 13 19
10 9 12 13 2 11 7 3 6 4 3 3 6 7 13 21 19 18 18 18 17 15 15 18 15 14 15 13 10 8 8 7 4 4 6 3 2 3 7 4 7 7 8 10 13 11 7 5 10
10 10 9 8 7 3 3 2 5 3 8 7 7 9 20 20 19 18 17 17 17 16 14 14 13 14 15 13 9 8 6 6 4 3 1 0 2 2 3 6 7 7 6 10 11 13 12 3 4
12 13 4 3 5 5 6 7 3 4 7 6 11 14 17 18 16 15 15 15 17 15 14 13 13 11 11 11 9 8 6 4 3 2 1 2 1 1 2 1 2 1 2 3 4 8 10 9 9
10 9 6 8 5 9 10 6 4 5 4 8 5 20 15 14 13 14 14 13 16 15 14 11 14 13 9 9 8 6 4 3 2 3 2 1 1 2 4 4 2 2 2 1 4 5 7 8 10
9 3 6 8 9 11 8 10 8 9 6 12 2 14 16 14 15 16 17 16 17 19 17 15 14 12 10 5 6 3 3 3 3 2 2 2 2 2 3 3 3 3 2 1 2 3 3 6 8
3 4 6 8 12 11 11 10 4 3 5 5 5 10 13 13 14 15 17 18 18 19 19 18 16 14 13 9 6 6 4 3 3 3 2 3 2 2 2 2 2 2 2 1 1 1 1 4 6
6 10 12 9 9 8 6 11 12 9 3 5 6 7 10 10 14 15 17 18 18 20 21 20 19 17 14 11 8 5 5 4 3 3 3 1 2 2 4 3 3 2 2 1 1 2 1 2 4
12 13 11 9 5 6 9 15 17 6 5 7 8 6 3 10 14 15 17 17 18 19 23 22 21 21 19 16 13 9 9 10 7 5 3 1 1 1 3 4 5 4 4 4 3 4 2 2 2
10 10 12 8 1 2 9 12 9 4 5 6 9 4 7 8 10 15 17 18 20 20 23 25 24 24 22 20 23 24 22 13 10 12 7 3 2 1 3 3 4 5 5 4 4 4 4 2 5
6 6 2 5 6 5 3 8 8 4 2 1 4 8 6 9 11 13 16 19 19 18 19 20 20 22 26 27 23 17 10 9 7 6 7 5 3 3 2 4 2 5 5 4 4 2 3 6 5
5 6 5 6 3 8 4 7 10 10 9 7 4 1 4 8 10 10 15 18 19 19 19 20 20 24 23 21 13 6 9 10 12 12 11 8 4 5 3 4 3 4 6 2 4 3 4 5 5
4 5 6 4 2 14 7 8 6 10 12 10 9 9 7 3 12 9 10 15 18 19 18 18 21 21 19 13 7 2 6 8 10 9 10 14 8 7 5 3 4 4 3 5 5 5 6 5 5
1 9 5 4 8 10 9 8 8 11 11 12 12 12 13 10 4 11 8 10 14 17 16 16 15 15 14 12 8 7 6 7 13 15 14 12 12 7 6 3 4 3 6 6 6 5 5 8 3
10 4 4 6 9 7 4 6 9 8 12 11 12 12 15 14 11 8 7 6 3 10 11 14 11 13 12 12 9 10 9 9 12 15 17 13 11 10 8 6 5 5 6 4 5 5 4 5 7
8 4 7 7 10 8 12 7 9 29 13 10 11 11 13 14 12 11 11 11 11 12 11 8 11 14 15 11 8 8 9 8 9 15 18 16 13 13 11 8 6 5 6 4 2 3 3 4 8
4 9 11 11 12 9 2 8 10 8 5 8 11 12 12 12 12 12 11 6 6 5 5 7 10 13 12 11 9 11 10 10 11 14 19 16 13 14 12 11 8 7 5 5 4 4 2 5 4
7 10 9 9 7 9 3 7 8 15 7 8 8 11 12 10 10 9 9 8 8 9 7 6 8 12 15 11 10 11 11 12 12 16 17 17 17 16 17 15 12 9 7 7 5 4 3 3 5
4 7 7 7 5 5 7 2 7 11 6 8 8 9 8 9 7 7 7 11 10 11 12 10 10 10 13 12 12 12 11 13 15 18 15 17 16 15 16 17 14 11 9 8 8 7 5 4 5
6 8 9 9 8 7 4 6 10 7 7 5 8 5 7 6 5 5 5 3 3 8 7 8 8 10 9 12 11 12 12 14 16 16 17 18 18 14 16 15 13 12 11 10 8 5 6 1 5
10 8 6 8 3 13 4 4 4 12 7 8 7 9 6 3 8 5 3 2 1 1 3 1 2 6 8 10 13 11 11 14 16 18 20 21 16 13 15 16 15 14 12 11 9 6 6 6 6
7 9 4 5 6 9 9 6 10 6 6 2 7 8 7 4 4 4 4 5 4 3 2 2 3 4 5 6 7 8 9 11 16 19 21 23 21 14 13 16 16 16 15 14 12 9 7 9 8
7 13 2 6 4 6 6 12 5 0 3 5 11 1 4 2 5 6 4 3 0 3 4 2 1 5 7 6 7 8 9 9 12 13 20 22 23 20 20 18 18 17 17 15 15 14 13 13 15
Wind_Direction
239 253 263 269 245 231 109 90 9 104 116 61 45 16 22 41 6 68 142 137 137 124 143 143 139 136 135 136 131 124 120 115 105 113 106 98 95 80 70 66 62 49 46 42 33 26 24 19 15
234 258 260 273 250 229 97 56 331 62 70 83 80 267 35 73 65 114 132 139 132 130 144 145 141 141 144 141 135 133 125 118 122 105 95 81 76 72 69 65 59 50 40 35 31 22 18 13 11
242 257 275 251 262 29 77 28 48 92 106 100 128 50 24 49 68 132 124 145 134 139 145 150 147 146 146 141 139 132 133 134 118 106 95 86 82 76 70 67 57 50 43 38 30 19 15 12 13
225 226 240 258 264 80 62 26 105 121 90 324 333 85 109 50 117 119 141 142 138 143 145 150 152 151 147 142 136 141 138 130 125 111 101 95 87 78 72 67 64 60 48 38 35 36 33 28 25
240 261 258 238 112 45 77 86 320 93 156 116 348 80 79 91 114 134 143 144 147 147 136 148 152 147 145 138 137 143 146 131 123 116 106 94 85 83 81 79 57 49 45 51 50 44 39 34 28
232 248 258 239 127 41 234 194 91 214 92 120 145 132 91 129 138 146 152 154 150 148 142 148 150 149 143 139 151 164 145 140 135 123 109 96 89 91 84 68 52 52 65 65 52 38 27 24 19
252 238 259 315 70 191 37 287 222 23 155 60 358 86 115 157 149 152 160 152 153 151 147 152 151 151 144 151 167 158 145 143 135 130 117 112 93 84 62 52 63 71 70 63 46 32 37 32 24
269 278 263 257 186 93 92 235 53 258 74 61 296 25 140 152 155 153 159 155 155 158 148 156 154 156 156 158 172 152 145 141 138 128 100 89 85 75 56 41 66 73 66 55 47 51 62 54 48
239 255 252 234 186 108 149 303 112 75 276 188 69 34 127 149 158 162 162 160 159 161 160 156 155 161 168 155 164 152 150 153 147 116 100 101 42 101 75 51 76 72 67 56 59 57 40 64 59
236 234 262 21 43 53 22 344 40 274 174 160 144 95 129 153 165 167 166 165 161 165 166 149 158 160 166 148 157 163 169 163 171 157 158 315 62 86 84 74 78 75 79 71 54 39 23 323 21
216 262 333 56 256 311 312 263 58 251 245 142 165 136 149 164 168 168 167 170 161 165 161 155 161 164 163 153 165 170 167 163 155 148 39 42 46 357 326 172 164 170 1 254 30 32 45 51 49
261 248 302 249 170 242 255 348 274 266 336 71 45 135 155 166 166 172 168 166 156 174 163 158 164 168 173 157 179 164 156 153 141 108 87 29 307 358 353 348 330 307 357 20 36 52 62 65 62
249 252 234 249 254 242 271 276 288 280 16 122 126 138 158 174 170 173 167 168 168 173 170 173 162 166 172 161 166 158 120 138 92 74 43 12 347 357 340 339 328 327 328 67 71 59 67 78 66
103 293 267 230 231 229 245 247 252 177 14 139 137 151 162 173 171 168 171 169 177 172 171 170 168 167 172 176 151 152 132 107 91 58 47 15 359 348 320 302 305 321 318 310 235 133 88 78 86
250 248 210 215 220 246 273 255 247 252 320 297 142 159 152 171 166 175 180 172 180 172 170 167 172 170 171 169 164 159 140 147 119 82 66 28 14 357 309 302 293 284 274 224 236 214 179 131 108
241 222 210 118 258 155 237 258 209 97 252 274 150 102 182 167 169 175 183 179 176 174 169 171 175 174 170 166 163 164 166 179 170 145 139 203 102 305 290 296 302 283 246 232 219 239 238 237 155
210 245 117 126 330 156 220 249 65 348 288 270 103 129 199 170 181 176 183 181 178 177 173 180 179 174 168 166 175 179 193 179 168 163 162 211 185 232 287 292 300 279 252 239 233 233 267 214 266
122 113 135 114 121 234 227 46 29 25 258 158 222 179 200 184 189 188 186 184 180 180 182 181 179 171 178 183 187 192 172 165 165 167 160 172 216 226 260 281 276 274 250 223 228 253 245 291 267
20 342 41 76 72 283 42 76 65 58 57 57 10 292 186 184 171 191 190 187 186 185 183 183 180 174 177 177 185 187 175 185 183 179 171 147 205 240 236 262 274 269 262 269 185 222 229 249 266
243 238 134 98 206 274 142 133 104 102 92 77 61 54 37 92 141 172 193 196 191 188 188 186 188 177 181 193 185 139 195 199 197 188 180 156 177 237 241 251 274 263 252 234 208 228 269 249 261
8 340 80 296 153 257 276 158 0 139 115 99 75 65 63 50 129 156 184 205 202 181 185 196 169 178 184 204 185 193 194 191 200 203 193 179 168 215 237 219 261 241 250 218 206 213 243 282 243
139 57 291 250 245 260 208 282 161 147 110 85 79 60 64 62 60 72 142 161 237 147 141 154 160 188 201 194 196 203 216 212 214 200 197 192 171 206 223 209 220 224 253 212 200 218 255 245 273
59 343 282 298 263 293 221 261 134 344 95 71 70 73 75 71 65 72 58 70 75 98 125 163 196 201 190 199 215 218 227 230 197 200 199 200 198 196 210 207 211 214 238 207 199 185 233 260 287
354 250 233 234 229 230 137 299 136 153 359 92 87 83 73 74 84 84 86 83 100 116 149 185 205 199 188 201 221 221 227 198 182 189 195 204 206 203 205 205 196 209 207 189 175 175 224 284 294
231 251 245 250 240 160 230 294 85 192 97 76 74 92 87 83 86 97 121 134 137 148 166 185 210 222 206 205 220 223 229 223 209 197 205 199 195 197 202 195 196 200 199 186 178 179 177 249 279
296 332 305 295 335 154 174 312 77 93 117 102 98 96 101 110 109 108 137 143 160 174 197 195 199 220 216 208 206 217 230 222 211 205 211 210 208 205 196 192 196 197 194 195 182 189 204 219 260
158 247 17 311 256 266 215 126 175 162 158 163 137 118 127 126 125 116 125 137 63 163 186 221 194 214 226 233 222 222 229 225 218 218 211 209 214 205 190 196 202 200 198 198 183 204 187 209 250
284 10 246 224 222 264 143 202 198 168 190 184 189 174 143 173 150 109 101 91 111 196 207 186 241 225 231 222 225 225 216 230 229 227 224 210 215 226 191 198 200 200 204 206 191 193 207 210 245
180 214 236 330 316 317 301 60 63 132 163 290 211 181 142 195 73 145 167 176 213 208 209 159 201 199 226 233 230 221 219 220 228 237 230 212 209 215 204 210 209 205 203 205 204 195 235 207 224
282 288 293 276 233 255 309 292 134 327 247 230 278 357 225 92 187 219 187 147 1 20 28 74 195 246 202 218 223 222 214 217 218 220 221 223 212 213 215 212 215 215 213 210 212 211 208 225 218
Height
776 776 773 764 774 742 760 762 754 758 753 751 750 753 761 760 772 803 782 784 787 795 805 809 811 813 815 816 817 818 820 821 821 820 820 821 820 821 820 821 821 821 820 819 818 817 815 814 813
777 775 770 756 766 763 766 748 758 750 753 750 756 752 757 772 767 777 783 786 791 798 806 809 812 814 816 817 818 820 821 822 822 822 822 823 822 823 822 822 823 822 822 820 819 819 817 816 814
777 774 768 757 748 757 767 752 749 750 751 754 755 755 759 774 772 776 782 788 792 800 805 809 812 815 817 819 820 822 823 823 824 824 824 824 824 825 825 824 824 823 822 821 819 819 818 817 815
772 767 761 766 752 748 753 752 748 750 754 750 751 763 768 776 776 780 787 790 796 802 806 811 814 816 818 819 822 823 824 825 825 825 826 825 825 827 826 826 826 823 823 822 821 820 818 817 816
771 759 766 759 751 748 743 748 746 753 756 749 751 767 775 777 780 785 788 792 797 801 807 813 815 817 819 821 823 825 825 827 828 828 827 828 828 828 827 827 826 825 824 823 822 821 819 818 816
767 753 768 758 749 752 741 741 744 745 743 751 755 759 773 778 782 786 788 791 795 800 807 814 816 819 821 823 825 827 828 828 829 829 830 830 829 829 828 828 827 826 825 824 824 822 821 819 817
768 757 761 746 751 754 748 739 743 746 747 748 745 753 772 777 780 783 787 790 795 799 806 814 818 821 823 825 827 828 829 830 830 831 832 832 830 832 830 830 829 829 827 825 824 824 822 820 818
757 756 760 750 755 760 748 742 743 745 741 744 744 745 774 773 779 783 785 789 794 799 803 810 816 821 824 826 828 829 830 831 833 834 834 833 832 832 832 831 831 830 829 827 826 825 823 822 820
758 769 763 751 755 749 740 742 739 743 745 748 749 752 759 772 778 782 784 788 793 798 802 805 814 819 821 826 829 830 831 833 834 835 835 834 834 834 834 833 833 832 831 830 829 827 824 823 823
763 765 750 735 737 746 741 744 744 749 746 749 753 758 764 774 777 779 783 786 791 798 802 804 813 816 818 823 830 832 834 834 836 836 836 835 836 835 835 835 833 833 833 831 830 828 824 823 823
758 763 741 746 746 744 746 744 738 747 746 738 747 755 765 771 776 779 783 787 791 797 803 806 814 817 818 822 828 830 833 835 836 838 837 837 838 838 836 834 833 833 832 832 831 830 829 827 825
766 753 750 746 744 748 749 739 746 742 742 738 741 748 764 771 776 779 783 787 793 800 804 808 815 819 820 823 827 829 832 835 835 837 837 838 838 838 837 836 836 835 834 834 833 833 832 830 828
766 754 751 748 748 746 743 748 745 741 732 736 744 745 760 766 771 776 782 787 792 798 804 810 815 820 823 825 827 830 832 834 835 836 837 837 838 838 838 838 837 836 835 835 834 835 833 832 831
754 755 752 748 747 745 753 748 744 738 737 736 746 747 754 760 767 774 780 785 790 797 804 809 814 820 823 826 828 831 832 834 835 837 838 838 838 839 839 838 837 836 836 835 835 835 834 833 832
756 766 754 751 748 751 748 759 754 735 739 742 746 749 750 758 764 771 777 782 787 794 802 807 811 816 821 824 827 829 831 833 835 836 837 838 839 839 839 838 837 836 837 836 836 836 835 833 833
762 756 763 752 749 748 757 766 734 734 739 743 741 752 756 757 762 769 775 781 787 791 798 804 807 809 813 817 821 825 828 827 828 833 835 837 837 838 839 838 838 837 836 835 834 835 834 834 833
757 762 758 764 748 749 755 757 744 741 741 745 744 754 760 758 762 767 773 780 785 790 795 798 801 804 809 811 810 806 811 821 824 822 830 836 836 837 838 837 838 838 836 835 834 834 834 835 834
763 760 762 764 754 749 755 756 749 745 747 749 750 753 756 761 764 767 772 778 784 790 795 799 803 806 805 807 811 814 818 823 827 830 828 831 836 837 837 837 836 838 836 834 834 835 835 835 834
756 759 761 760 755 755 762 762 759 752 750 754 753 752 750 756 763 769 772 777 783 789 793 797 801 802 807 810 814 817 819 822 824 825 825 825 834 838 836 837 836 836 837 835 835 836 836 834 835
761 764 764 763 758 758 759 766 762 757 757 759 760 759 754 751 759 769 773 776 781 787 793 798 800 804 810 814 817 818 821 822 824 824 827 821 829 837 837 835 836 835 836 837 835 835 834 834 835
762 761 766 768 761 756 759 767 787 761 753 753 759 759 760 761 757 767 774 777 780 785 792 797 803 809 812 815 816 815 817 819 820 820 823 824 827 833 836 834 836 835 835 836 835 835 834 832 833
768 757 764 767 773 779 760 785 790 755 759 758 760 762 764 766 767 769 773 778 781 784 791 798 804 809 811 812 813 814 816 818 819 820 824 825 824 832 834 833 834 834 835 835 834 834 833 833 831
770 758 763 764 770 768 763 773 785 792 767 771 763 765 767 772 775 776 779 786 790 793 797 801 805 807 809 812 814 814 814 815 817 820 824 824 826 829 832 832 834 834 834 834 833 833 833 833 833
757 764 761 758 757 785 767 771 814 833 775 770 762 766 769 772 778 784 791 793 793 797 801 803 805 806 808 810 811 811 812 814 816 819 820 821 824 827 830 832 832 834 834 834 833 833 834 835 834
762 770 785 798 789 805 766 773 779 771 763 763 765 767 771 774 778 782 787 793 794 798 801 803 804 804 806 808 809 810 811 813 815 817 819 819 820 822 825 827 830 831 832 832 832 833 833 836 836
763 771 782 803 793 797 762 778 774 755 756 757 762 767 770 775 779 782 785 787 792 796 797 798 799 801 802 803 805 807 808 809 811 812 815 819 820 821 823 824 826 828 829 831 830 831 833 834 837
767 778 760 780 768 781 760 759 752 753 758 759 761 766 770 773 776 778 781 782 783 786 790 793 795 798 799 801 802 804 806 807 808 810 812 815 817 818 821 824 826 827 828 829 828 830 830 833 836
767 761 787 777 805 802 770 772 765 766 762 758 761 762 768 770 771 779 783 785 786 787 787 791 793 795 796 797 798 800 802 804 806 806 809 812 815 816 818 821 823 825 826 828 826 829 831 832 834
773 775 778 781 785 798 798 779 746 754 753 756 753 752 759 766 769 777 780 783 783 782 782 786 789 793 796 796 796 798 799 800 801 802 804 808 811 814 816 819 822 822 823 824 825 825 827 830 830
771 774 774 792 795 782 789 785 741 750 751 754 754 751 754 767 771 774 773 778 779 780 780 782 787 788 791 794 795 796 797 798 798 799 801 804 808 812 814 816 818 820 820 821 823 824 823 827 827